Skip Page Navigation
NASA JPL Caltech
NASA Logo - Jet Propulsion Laboratory + View the NASA Portal
+ Center for Near-Earth Object Studies
JPL Home Earth Solar System Stars & Galaxies Technology
JPL Solar System Dynamics
BODIES ORBITS EPHEMERIDES TOOLS PHYSICAL DATA DISCOVERY FAQ SITE MAP
IMPORTANT: The SSD Announcement email list is now available. Major changes are coming in the near future, including possible hostname and/or URL changes. To be notified of such changes, subscribe to this email list.

Please visit this page for more details.


JPL Small-Body Database Browser
Search: [ help ]  
347875 (2002 TA24)
Classification: Main-belt Asteroid          SPK-ID: 2347875
Ephemeris | Orbit Diagram | Orbital Elements | Mission Design | Physical Parameters | Discovery Circumstances ]

[ show orbit diagram ]
Orbital Elements at Epoch 2459000.5 (2020-May-31.0) TDB
Reference: JPL 7 (heliocentric ecliptic J2000)
 Element Value Uncertainty (1-sigma)   Units 
e .2255283250727637 8.3448e-08  
a 2.812424207038683 2.829e-08 au
q 2.178142886231154 2.4238e-07 au
i 7.980838784409677 8.9296e-06 deg
node 21.87513368489763 6.2553e-05 deg
peri 356.7553646036536 6.5598e-05 deg
M 266.9629223472622 2.2128e-05 deg
tp 2459445.718526121436
(2021-Aug-19.21852612)
0.00011036 TDB
period 1722.739723209701
4.72
2.5993e-05
7.116e-08
d
yr
n .2089694659906434 3.153e-09 deg/d
Q 3.446705527846213 3.467e-08 au
  Orbit Determination Parameters
   # obs. used (total)      168  
   data-arc span      6031 days (16.51 yr)  
   first obs. used      2002-10-02  
   last obs. used      2019-04-07  
   planetary ephem.      DE431  
   SB-pert. ephem.      SB431-N16  
   condition code      0  
   norm. resid. RMS      .62714  
   source      ORB  
   producer      Otto Matic  
   solution date      2020-Feb-25 23:30:21  

Additional Information
 Earth MOID = 1.18047 au 
 Jupiter MOID = 2.01577 au 
 T_jup = 3.269 
[ hide covariance matrix ]
Orbital Elements at Epoch 2456998.5 (2014-Dec-07.0) TDB
Reference: JPL 7 (heliocentric ecliptic J2000)
 Element Value Uncertainty (1-sigma)   Units 
e .2267946187548293 8.285e-08  
q 2.172098833586706 2.397e-07 au
tp 2457726.720212825156
(2016-Dec-04.22021283)
9.4825e-05 TDB
node 21.92113851970901 6.2488e-05 deg
peri 357.1760618140447 6.5519e-05 deg
i 7.98896938561687 8.9372e-06 deg
  Orbit Determination Parameters
   # obs. used (total)      168  
   data-arc span      6031 days (16.51 yr)  
   first obs. used      2002-10-02  
   last obs. used      2019-04-07  
   planetary ephem.      DE431  
   SB-pert. ephem.      SB431-N16  
   condition code      0  
   norm. resid. RMS      .62714  
   source      ORB  
   producer      Otto Matic  
   solution date      2020-Feb-25 23:30:21  

Additional Information
 Jupiter MOID = 2.01577 au 
 T_jup = 3.269 
Orbit Covariance (6×6)
  e q tp node peri i
e 6.864070302586175E-15 -1.978335824737745E-14 -2.488006815778085E-12 -9.245656654768154E-14 -5.718760564860245E-13 -2.157535447488528E-15
q -1.978335824737745E-14 5.745635563301639E-14 7.971351035894569E-12 2.683522643415156E-13 1.764379574988031E-12 6.900084742717884E-15
tp -2.488006815778085E-12 7.971351035894569E-12 8.991779080191753E-9 7.881872375593054E-11 1.9417865818128E-9 -1.476930928370544E-11
node -9.245656654768154E-14 2.683522643415156E-13 7.881872375593054E-11 3.90477850820818E-9 -3.846409238511365E-9 -7.887610223093898E-11
peri -5.718760564860245E-13 1.764379574988031E-12 1.9417865818128E-9 -3.846409238511365E-9 4.292674370037629E-9 7.48581746631311E-11
i -2.157535447488528E-15 6.900084742717884E-15 -1.476930928370544E-11 -7.887610223093898E-11 7.48581746631311E-11 7.987275976544659E-11

Ephemeris | Orbit Diagram | Orbital Elements | Mission Design | Physical Parameters | Discovery Circumstances ]

Physical Parameter Table
Parameter Symbol Value Units Sigma Reference Notes
absolute magnitude H 16.4   n/a MPO437472  

347875 (2002 TA24)          Discovered 2002-Oct-02 by LINEAR at Socorro
Reference: 20121228/Numbers.arcLast Updated: 2013-01-02

Alternate Designations
 2002 TA24 = 2007 WL61 = 2010 JV32 
Ephemeris | Orbit Diagram | Orbital Elements | Mission Design | Physical Parameters | Discovery Circumstances ]
ABOUT SSD CREDITS/AWARDS PRIVACY/COPYRIGHT GLOSSARY LINKS
FirstGov 2020-Apr-04 13:28 UT
(server date/time)  
NASA Home Page
Site Manager:   Ryan S. Park
Webmaster  Alan B. Chamberlin